| time (UTC) | temp C | wind direction | speed KPH | gust KPH | rain 1hr cm | rain 24hr cm | rain mn cm | humidity % | barometer mb |
| 20260904173026 | 16 | 95 | 0.0 | 9.7 | 0.00 | 0.00 | 0.00 | 57 | 1012.6 |
| 20260904171525 | 17 | 84 | 1.6 | 12.9 | 0.00 | 0.00 | 0.00 | 52 | 1012.2 |
| 20260904170025 | 17 | 94 | 1.6 | 11.3 | 0.00 | 0.00 | 0.00 | 52 | 1012.3 |
| 20260904164523 | 17 | 44 | 3.2 | 12.9 | 0.00 | 0.00 | 0.00 | 52 | 1012.4 |
| 20260904163021 | 17 | 65 | 0.0 | 8.0 | 0.00 | 0.00 | 0.00 | 54 | 1012.4 |
| 20260904161517 | 16 | 108 | 0.0 | 6.4 | 0.00 | 0.00 | 0.00 | 57 | 1012.4 |
| 20260904160014 | 16 | 102 | 0.0 | 4.8 | 0.00 | 0.00 | 0.00 | 57 | 1012.6 |
| 20260904154512 | 15 | 146 | 1.6 | 6.4 | 0.00 | 0.00 | 0.00 | 56 | 1012.7 |
| 20260904153007 | 13 | 136 | 0.0 | 8.0 | 0.00 | 0.00 | 0.00 | 67 | 1012.6 |
| 20260904151502 | 12 | 153 | 0.0 | 1.6 | 0.00 | 0.00 | 0.00 | 80 | 1012.8 |
| 20260904150058 | 10 | 167 | 0.0 | 0.0 | 0.00 | 0.00 | 0.00 | 85 | 1012.9 |
| 20260904144555 | 9 | 167 | 0.0 | 0.0 | 0.00 | 0.00 | 0.00 | 86 | 1012.9 |
| 20260904143051 | 8 | 167 | 0.0 | 0.0 | 0.00 | 0.00 | 0.00 | 87 | 1012.9 |
| 20260904141555 | 8 | 162 | 0.0 | 0.0 | 0.00 | 0.00 | 0.00 | 88 | 1012.9 |
| 20260904140104 | 8 | 161 | 0.0 | 0.0 | 0.00 | 0.00 | 0.00 | 88 | 1012.9 |
| 20260904134609 | 8 | 139 | 0.0 | 0.0 | 0.00 | 0.00 | 0.00 | 89 | 1012.7 |
| 20260904133049 | 8 | 139 | 0.0 | 0.0 | 0.00 | 0.00 | 0.00 | 88 | 1012.5 |
| 20260904131544 | 8 | 139 | 0.0 | 0.0 | 0.00 | 0.00 | 0.00 | 88 | 1012.3 |
| 20260904130044 | 8 | 139 | 0.0 | 0.0 | 0.00 | 0.00 | 0.00 | 87 | 1012.1 |
| 20260904124543 | 8 | 139 | 0.0 | 0.0 | 0.00 | 0.00 | 0.00 | 87 | 1012.0 |
| 20260904123041 | 8 | 139 | 0.0 | 0.0 | 0.00 | 0.00 | 0.00 | 87 | 1011.9 |
| 20260904121549 | 8 | 139 | 0.0 | 0.0 | 0.00 | 0.00 | 0.00 | 86 | 1011.9 |
| 20260904120040 | 8 | 139 | 0.0 | 0.0 | 0.00 | 0.00 | 0.00 | 86 | 1011.7 |
| 20260904114542 | 8 | 139 | 0.0 | 0.0 | 0.00 | 0.03 | 0.00 | 86 | 1011.6 |
| 20260904113039 | 8 | 139 | 0.0 | 0.0 | 0.00 | 0.03 | 0.00 | 86 | 1011.6 |
| 20260904111541 | 8 | 139 | 0.0 | 0.0 | 0.00 | 0.03 | 0.00 | 86 | 1011.5 |
| 20260904110037 | 8 | 139 | 0.0 | 0.0 | 0.00 | 0.03 | 0.00 | 86 | 1011.6 |
| 20260904104536 | 7 | 139 | 0.0 | 0.0 | 0.00 | 0.03 | 0.00 | 86 | 1011.4 |
| 20260904103035 | 8 | 139 | 0.0 | 0.0 | 0.00 | 0.03 | 0.00 | 86 | 1011.2 |
| 20260904101535 | 7 | 139 | 0.0 | 0.0 | 0.00 | 0.03 | 0.00 | 86 | 1011.3 |
| 20260904100034 | 7 | 139 | 0.0 | 0.0 | 0.00 | 0.03 | 0.00 | 86 | 1011.3 |
| 20260904094548 | 7 | 139 | 0.0 | 0.0 | 0.00 | 0.03 | 0.00 | 86 | 1011.3 |
| 20260904093031 | 7 | 139 | 0.0 | 0.0 | 0.00 | 0.03 | 0.00 | 85 | 1011.4 |
| 20260904091530 | 7 | 139 | 0.0 | 0.0 | 0.00 | 0.03 | 0.00 | 84 | 1011.5 |
| 20260904090042 | 7 | 139 | 0.0 | 0.0 | 0.00 | 0.03 | 0.00 | 84 | 1011.6 |
| 20260904084528 | 8 | 139 | 0.0 | 0.0 | 0.00 | 0.03 | 0.00 | 84 | 1011.8 |
| 20260904083049 | 8 | 139 | 0.0 | 0.0 | 0.00 | 0.03 | 0.00 | 84 | 1011.8 |
| 20260904081531 | 8 | 139 | 0.0 | 0.0 | 0.00 | 0.03 | 0.00 | 83 | 1011.8 |
| 20260904080027 | 8 | 139 | 0.0 | 0.0 | 0.00 | 0.03 | 0.00 | 83 | 1012.0 |
| 20260904074522 | 8 | 139 | 0.0 | 0.0 | 0.00 | 0.03 | 0.00 | 83 | 1012.0 |
| 20260904073023 | 8 | 172 | 0.0 | 0.0 | 0.00 | 0.03 | 0.00 | 81 | 1011.9 |
| 20260904071519 | 8 | 172 | 0.0 | 0.0 | 0.00 | 0.03 | 0.00 | 81 | 1012.0 |
| 20260904070026 | 8 | 172 | 0.0 | 0.0 | 0.00 | 0.03 | 0.00 | 80 | 1012.0 |
| 20260904064518 | 8 | 172 | 0.0 | 0.0 | 0.00 | 0.03 | 0.00 | 81 | 1012.0 |
| 20260904063017 | 8 | 172 | 0.0 | 0.0 | 0.00 | 0.03 | 0.00 | 81 | 1012.0 |
| 20260904061522 | 8 | 172 | 0.0 | 0.0 | 0.00 | 0.03 | 0.00 | 81 | 1011.9 |
| 20260904060017 | 8 | 172 | 0.0 | 0.0 | 0.00 | 0.03 | 0.00 | 81 | 1011.9 |
| 20260904054513 | 8 | 172 | 0.0 | 0.0 | 0.00 | 0.03 | 0.03 | 81 | 1011.9 |
| 20260904053032 | 8 | 172 | 0.0 | 0.0 | 0.00 | 0.03 | 0.03 | 81 | 1011.9 |
| 20260904051522 | 8 | 172 | 0.0 | 0.0 | 0.00 | 0.03 | 0.03 | 81 | 1012.0 |
| 20260904050011 | 8 | 172 | 0.0 | 0.0 | 0.00 | 0.03 | 0.03 | 79 | 1012.0 |
| 20260904044511 | 8 | 172 | 0.0 | 0.0 | 0.00 | 0.03 | 0.03 | 78 | 1012.0 |
| 20260904043011 | 8 | 172 | 0.0 | 0.0 | 0.00 | 0.03 | 0.03 | 77 | 1012.0 |
| 20260904041510 | 9 | 172 | 0.0 | 0.0 | 0.00 | 0.03 | 0.03 | 76 | 1012.1 |
| 20260904040010 | 9 | 172 | 0.0 | 0.0 | 0.00 | 0.03 | 0.03 | 75 | 1012.0 |
| 20260904034510 | 10 | 172 | 0.0 | 0.0 | 0.00 | 0.03 | 0.03 | 73 | 1012.0 |
| 20260904033008 | 10 | 172 | 0.0 | 0.0 | 0.00 | 0.03 | 0.03 | 70 | 1012.0 |
| 20260904031508 | 11 | 172 | 0.0 | 0.0 | 0.00 | 0.03 | 0.03 | 69 | 1012.0 |
| 20260904030008 | 11 | 172 | 0.0 | 0.0 | 0.00 | 0.03 | 0.03 | 67 | 1011.9 |
| 20260904024508 | 11 | 172 | 0.0 | 0.0 | 0.00 | 0.03 | 0.03 | 64 | 1011.8 |
| 20260904023006 | 12 | 172 | 0.0 | 0.0 | 0.00 | 0.03 | 0.03 | 64 | 1011.6 |
| 20260904021506 | 12 | 172 | 0.0 | 0.0 | 0.00 | 0.03 | 0.03 | 62 | 1011.4 |
| 20260904020006 | 13 | 172 | 0.0 | 0.0 | 0.00 | 0.03 | 0.03 | 61 | 1011.1 |
| 20260904014506 | 13 | 98 | 0.0 | 0.0 | 0.00 | 0.03 | 0.03 | 58 | 1011.0 |
| 20260904013009 | 15 | 98 | 0.0 | 0.0 | 0.00 | 0.03 | 0.03 | 54 | 1011.0 |
| 20260904011505 | 16 | 97 | 0.0 | 0.0 | 0.00 | 0.03 | 0.03 | 50 | 1011.1 |
| 20260904010004 | 16 | 98 | 0.0 | 1.6 | 0.00 | 0.05 | 0.03 | 45 | 1011.0 |
| 20260904004503 | 17 | 265 | 0.0 | 0.0 | 0.00 | 0.05 | 0.03 | 44 | 1011.1 |
| 20260904003002 | 18 | 265 | 0.0 | 1.6 | 0.00 | 0.05 | 0.03 | 40 | 1011.0 |
| 20260904001501 | 20 | 260 | 0.0 | 1.6 | 0.00 | 0.05 | 0.03 | 40 | 1011.1 |
| 20260904000108 | 20 | 283 | 0.0 | 8.0 | 0.00 | 0.05 | 0.03 | 36 | 1011.4 |
| 20260903234559 | 20 | 228 | 1.6 | 4.8 | 0.00 | 0.28 | 0.03 | 34 | 1011.5 |
| 20260903233102 | 21 | 269 | 0.0 | 4.8 | 0.00 | 0.28 | 0.03 | 32 | 1011.5 |
| 20260903231558 | 21 | 281 | 0.0 | 6.4 | 0.00 | 0.28 | 0.03 | 31 | 1011.5 |
| 20260903230059 | 21 | 280 | 0.0 | 4.8 | 0.00 | 0.28 | 0.03 | 36 | 1011.6 |
| 20260903224556 | 21 | 255 | 0.0 | 4.8 | 0.00 | 0.28 | 0.03 | 33 | 1011.8 |
| 20260903223057 | 21 | 46 | 0.0 | 8.0 | 0.00 | 0.28 | 0.03 | 33 | 1012.2 |
| 20260903221553 | 21 | 266 | 0.0 | 6.4 | 0.00 | 0.28 | 0.03 | 34 | 1012.2 |
| 20260903220052 | 20 | 128 | 1.6 | 14.5 | 0.00 | 0.28 | 0.03 | 32 | 1012.5 |
| 20260903214605 | 21 | 79 | 0.0 | 9.7 | 0.00 | 0.38 | 0.03 | 32 | 1012.6 |
| 20260903213050 | 21 | 226 | 0.0 | 14.5 | 0.00 | 0.38 | 0.03 | 34 | 1012.7 |
| 20260903211550 | 21 | 291 | 1.6 | 4.8 | 0.00 | 0.38 | 0.03 | 33 | 1012.7 |
| 20260903210046 | 21 | 237 | 1.6 | 9.7 | 0.00 | 0.38 | 0.03 | 31 | 1013.1 |
| 20260903204543 | 21 | 148 | 0.0 | 9.7 | 0.00 | 0.38 | 0.03 | 35 | 1013.1 |
| 20260903203040 | 20 | 274 | 0.0 | 8.0 | 0.00 | 0.38 | 0.03 | 34 | 1013.4 |
| 20260903201544 | 20 | 72 | 0.0 | 11.3 | 0.00 | 0.38 | 0.03 | 34 | 1013.5 |
| 20260903200038 | 20 | 63 | 1.6 | 9.7 | 0.00 | 0.38 | 0.03 | 36 | 1013.7 |
| 20260903194537 | 20 | 121 | 0.0 | 9.7 | 0.00 | 0.38 | 0.03 | 38 | 1013.6 |
| 20260903193034 | 20 | 106 | 0.0 | 8.0 | 0.00 | 0.38 | 0.03 | 33 | 1013.7 |
| 20260903191534 | 19 | 200 | 0.0 | 16.1 | 0.00 | 0.38 | 0.03 | 37 | 1013.9 |
| 20260903190031 | 20 | 221 | 0.0 | 14.5 | 0.00 | 0.38 | 0.03 | 39 | 1013.9 |
| 20260903184529 | 20 | 72 | 3.2 | 8.0 | 0.00 | 0.38 | 0.03 | 34 | 1014.1 |
| 20260903183027 | 19 | 141 | 0.0 | 4.8 | 0.00 | 0.38 | 0.03 | 41 | 1014.2 |
| 20260903181524 | 18 | 129 | 0.0 | 4.8 | 0.00 | 0.38 | 0.03 | 40 | 1014.4 |
| 20260903180031 | 18 | 156 | 1.6 | 6.4 | 0.00 | 0.38 | 0.03 | 40 | 1014.6 |
| 20260903174518 | 17 | 271 | 0.0 | 8.0 | 0.00 | 0.38 | 0.03 | 46 | 1014.8 |